This is the latest recevied weather packets stored in our database for station/object K7CTM. If no packets are shown the sender has not sent any weather packets the latest 10 day(s).
| Time | Temp. | Humidity | Pressure | Rain* | Wind** | Luminosity | Snow |
|---|---|---|---|---|---|---|---|
| 1777661187 | 17.78° C | 23% | 1029.2 hPa | 0 mm | - | 840 W/m² | - |
| 1777660881 | 17.78° C | 26% | 1029.6 hPa | 0 mm | - | 838 W/m² | - |
| 1777660578 | 17.78° C | 24% | 1029.2 hPa | 0 mm | - | 839 W/m² | - |
| 1777660275 | 17.78° C | 24% | 1029.4 hPa | 0 mm | - | 837 W/m² | - |
| 1777659972 | 17.78° C | 26% | 1029.5 hPa | 0 mm | - | 832 W/m² | - |
| 1777659669 | 17.22° C | 25% | 1029.6 hPa | 0 mm | - | 829 W/m² | - |
| 1777659366 | 18.33° C | 26% | 1029.6 hPa | 0 mm | - | 820 W/m² | - |
| 1777659062 | 18.33° C | 26% | 1029.6 hPa | 0 mm | - | 823 W/m² | - |
| 1777658761 | 17.78° C | 25% | 1029.5 hPa | 0 mm | - | 816 W/m² | - |
| 1777658456 | 17.78° C | 27% | 1029.7 hPa | 0 mm | - | 809 W/m² | - |
| 1777658153 | 17.78° C | 28% | 1029.5 hPa | 0 mm | - | 804 W/m² | - |
| 1777657850 | 17.78° C | 27% | 1029.8 hPa | 0 mm | - | 794 W/m² | - |
| 1777657547 | 17.78° C | 28% | 1029.7 hPa | 0 mm | - | 793 W/m² | - |
| 1777657245 | 17.78° C | 26% | 1029.7 hPa | 0 mm | - | 781 W/m² | - |
| 1777656941 | 17.22° C | 27% | 1029.7 hPa | 0 mm | - | 717 W/m² | - |
| 1777656638 | 17.22° C | 27% | 1029.7 hPa | 0 mm | - | 772 W/m² | - |
| 1777656334 | 17.22° C | 27% | 1029.9 hPa | 0 mm | - | 747 W/m² | - |
| 1777656030 | 17.22° C | 26% | 1029.8 hPa | 0 mm | - | 753 W/m² | - |
| 1777655726 | 16.67° C | 27% | 1029.9 hPa | 0 mm | - | 746 W/m² | - |
| 1777655423 | 16.67° C | 29% | 1029.8 hPa | 0 mm | - | 738 W/m² | - |
| 1777655120 | 16.67° C | 28% | 1029.7 hPa | 0 mm | - | 729 W/m² | - |
| 1777654817 | 17.22° C | 27% | 1029.9 hPa | 0 mm | - | 720 W/m² | - |
| 1777654515 | 16.67° C | 30% | 1029.8 hPa | 0 mm | - | 710 W/m² | - |
| 1777654212 | 16.67° C | 27% | 1029.9 hPa | 0 mm | - | 688 W/m² | - |
| 1777653910 | 16.67° C | 29% | 1029.9 hPa | 0 mm | - | 688 W/m² | - |
* Rain latest hour (hover to see other rain measurements)
** Current wind speed in m/s (hover to see current wind gust speed)